Time,TemperatureF,DewpointF,PressureIn,WindDirection,WindDirectionDegrees,WindSpeedMPH,WindSpeedGustMPH,Humidity,HourlyPrecipIn,Conditions,Clouds,dailyrainin,SoftwareType,DateUTC
2013-12-08 00:00:00,18.4,4.9,30.57,SE,131,2.0,7.0,55,0.00,,---,0.00,VWS V14.01,2013-12-08 06:00:00,
2013-12-08 00:01:00,18.4,5.7,30.55,SSE,150,0.0,6.0,57,0.00,,---,0.00,VWS V14.01,2013-12-08 06:01:00,
2013-12-08 00:06:00,18.4,5.3,30.55,ENE,74,2.0,6.0,56,0.00,,---,0.00,VWS V14.01,2013-12-08 06:06:00,
2013-12-08 00:10:00,18.4,5.3,30.55,East,81,6.0,6.0,56,0.00,,---,0.00,VWS V14.01,2013-12-08 06:10:00,
2013-12-08 00:11:00,18.4,5.7,30.55,ESE,103,1.0,6.0,57,0.00,,---,0.00,VWS V14.01,2013-12-08 06:11:00,
2013-12-08 00:16:00,18.4,5.3,30.55,ESE,105,0.0,6.0,56,0.00,,---,0.00,VWS V14.01,2013-12-08 06:16:00,
2013-12-08 00:20:00,18.4,5.3,30.56,ESE,118,2.0,8.0,56,0.00,,---,0.00,VWS V14.01,2013-12-08 06:20:00,
2013-12-08 00:21:00,18.5,5.8,30.54,ESE,110,1.0,5.0,57,0.00,,---,0.00,VWS V14.01,2013-12-08 06:21:00,
2013-12-08 00:26:00,18.4,5.7,30.54,East,92,1.0,6.0,57,0.00,,---,0.00,VWS V14.01,2013-12-08 06:26:00,
2013-12-08 00:30:00,18.5,5.4,30.56,ESE,107,1.0,5.0,56,0.00,,---,0.00,VWS V14.01,2013-12-08 06:30:00,
2013-12-08 00:31:00,18.4,5.7,30.54,East,83,2.0,4.0,57,0.00,,---,0.00,VWS V14.01,2013-12-08 06:31:00,
2013-12-08 00:36:00,18.4,5.7,30.53,ENE,78,2.0,7.0,57,0.00,,---,0.00,VWS V14.01,2013-12-08 06:36:00,
2013-12-08 00:40:00,18.5,5.4,30.55,ESE,123,1.0,9.0,56,0.00,,---,0.00,VWS V14.01,2013-12-08 06:40:00,
2013-12-08 00:41:00,18.4,5.7,30.52,SE,128,0.0,4.0,57,0.00,,---,0.00,VWS V14.01,2013-12-08 06:41:00,
2013-12-08 00:46:00,18.4,5.7,30.52,ESE,113,2.0,7.0,57,0.00,,---,0.00,VWS V14.01,2013-12-08 06:46:00,
2013-12-08 00:50:00,18.5,5.4,30.56,East,90,2.0,8.0,56,0.00,,---,0.00,VWS V14.01,2013-12-08 06:50:00,
2013-12-08 00:51:00,18.3,5.6,30.51,ENE,71,5.0,5.0,57,0.00,,---,0.00,VWS V14.01,2013-12-08 06:51:00,
2013-12-08 00:56:00,18.3,5.6,30.51,NNE,21,3.0,7.0,57,0.00,,---,0.00,VWS V14.01,2013-12-08 06:56:00,
2013-12-08 01:00:00,18.4,5.3,30.55,East,90,0.0,8.0,56,0.00,,---,0.00,VWS V14.01,2013-12-08 07:00:00,
2013-12-08 01:01:00,18.2,5.9,30.51,ESE,119,1.0,4.0,58,0.00,,---,0.00,VWS V14.01,2013-12-08 07:01:00,
2013-12-08 01:06:00,18.2,5.5,30.51,East,89,0.0,4.0,57,0.00,,---,0.00,VWS V14.01,2013-12-08 07:06:00,
2013-12-08 01:10:00,18.4,5.3,30.55,ENE,78,4.0,6.0,56,0.00,,---,0.00,VWS V14.01,2013-12-08 07:10:00,
2013-12-08 01:11:00,18.2,5.9,30.51,ESE,117,4.0,4.0,58,0.00,,---,0.00,VWS V14.01,2013-12-08 07:11:00,
2013-12-08 01:16:00,18.2,5.9,30.51,ESE,117,1.0,5.0,58,0.00,,---,0.00,VWS V14.01,2013-12-08 07:16:00,
2013-12-08 01:20:00,18.5,5.8,30.55,ESE,111,1.0,6.0,57,0.00,,---,0.00,VWS V14.01,2013-12-08 07:20:00,
2013-12-08 01:21:00,18.2,5.9,30.50,East,92,0.0,3.0,58,0.00,,---,0.00,VWS V14.01,2013-12-08 07:21:00,
2013-12-08 01:26:00,18.2,5.9,30.50,SE,126,1.0,5.0,58,0.00,,---,0.00,VWS V14.01,2013-12-08 07:26:00,
2013-12-08 01:30:00,18.4,5.7,30.54,ENE,78,4.0,6.0,57,0.00,,---,0.00,VWS V14.01,2013-12-08 07:30:00,
2013-12-08 01:31:00,18.3,6.0,30.50,East,80,2.0,5.0,58,0.00,,---,0.00,VWS V14.01,2013-12-08 07:31:00,
2013-12-08 01:36:00,18.2,5.5,30.49,SE,125,0.0,7.0,57,0.00,,---,0.00,VWS V14.01,2013-12-08 07:36:00,
2013-12-08 01:40:00,18.4,5.7,30.53,ESE,116,1.0,7.0,57,0.00,,---,0.00,VWS V14.01,2013-12-08 07:40:00,
2013-12-08 01:41:00,18.2,5.9,30.49,East,91,1.0,4.0,58,0.00,,---,0.00,VWS V14.01,2013-12-08 07:41:00,
2013-12-08 01:46:00,18.2,5.9,30.49,East,80,4.0,4.0,58,0.00,,---,0.00,VWS V14.01,2013-12-08 07:46:00,
2013-12-08 01:50:00,18.4,5.7,30.52,ESE,116,1.0,11.0,57,0.00,,---,0.00,VWS V14.01,2013-12-08 07:50:00,
2013-12-08 01:51:00,18.2,5.9,30.49,ESE,103,2.0,4.0,58,0.00,,---,0.00,VWS V14.01,2013-12-08 07:51:00,
2013-12-08 01:56:00,18.2,5.9,30.48,East,92,2.0,4.0,58,0.00,,---,0.00,VWS V14.01,2013-12-08 07:56:00,
2013-12-08 02:00:00,18.3,5.6,30.52,East,96,2.0,7.0,57,0.00,,---,0.00,VWS V14.01,2013-12-08 08:00:00,
2013-12-08 02:01:00,18.2,5.9,30.49,ESE,109,5.0,7.0,58,0.00,,---,0.00,VWS V14.01,2013-12-08 08:01:00,
2013-12-08 02:06:00,18.2,5.5,30.49,ESE,113,2.0,7.0,57,0.00,,---,0.00,VWS V14.01,2013-12-08 08:06:00,
2013-12-08 02:10:00,18.2,5.5,30.51,ENE,78,0.0,4.0,57,0.00,,---,0.00,VWS V14.01,2013-12-08 08:10:00,
2013-12-08 02:11:00,18.1,5.8,30.48,SE,129,1.0,2.0,58,0.00,,---,0.00,VWS V14.01,2013-12-08 08:11:00,
2013-12-08 02:16:00,18.1,5.8,30.47,ENE,76,2.0,5.0,58,0.00,,---,0.00,VWS V14.01,2013-12-08 08:16:00,
2013-12-08 02:20:00,18.2,5.9,30.51,ENE,65,1.0,5.0,58,0.00,,---,0.00,VWS V14.01,2013-12-08 08:20:00,
2013-12-08 02:21:00,18.1,5.8,30.47,ESE,102,1.0,3.0,58,0.00,,---,0.00,VWS V14.01,2013-12-08 08:21:00,
2013-12-08 02:26:00,18.2,5.9,30.47,SE,124,0.0,6.0,58,0.00,,---,0.00,VWS V14.01,2013-12-08 08:26:00,
2013-12-08 02:30:00,18.2,5.9,30.50,East,90,4.0,5.0,58,0.00,,---,0.00,VWS V14.01,2013-12-08 08:30:00,
2013-12-08 02:31:00,18.2,6.3,30.47,ENE,75,0.0,5.0,59,0.00,,---,0.00,VWS V14.01,2013-12-08 08:31:00,
2013-12-08 02:36:00,18.2,5.9,30.47,East,89,2.0,5.0,58,0.00,,---,0.00,VWS V14.01,2013-12-08 08:36:00,
2013-12-08 02:40:00,18.2,5.9,30.49,ESE,111,1.0,7.0,58,0.00,,---,0.00,VWS V14.01,2013-12-08 08:40:00,
2013-12-08 02:41:00,18.2,5.9,30.47,NE,55,0.0,6.0,58,0.00,,---,0.00,VWS V14.01,2013-12-08 08:41:00,
2013-12-08 02:46:00,18.2,5.9,30.47,East,86,0.0,6.0,58,0.00,,---,0.00,VWS V14.01,2013-12-08 08:46:00,
2013-12-08 02:50:00,18.2,5.9,30.49,ESE,107,1.0,5.0,58,0.00,,---,0.00,VWS V14.01,2013-12-08 08:50:00,
2013-12-08 02:51:00,18.2,5.9,30.47,ESE,111,1.0,8.0,58,0.00,,---,0.00,VWS V14.01,2013-12-08 08:51:00,
2013-12-08 02:56:00,18.2,6.3,30.46,ESE,109,0.0,8.0,59,0.00,,---,0.00,VWS V14.01,2013-12-08 08:56:00,
2013-12-08 03:00:00,18.2,5.9,30.48,SE,129,0.0,6.0,58,0.00,,---,0.00,VWS V14.01,2013-12-08 09:00:00,
2013-12-08 03:01:00,18.2,5.9,30.46,ESE,107,0.0,10.0,58,0.00,,---,0.00,VWS V14.01,2013-12-08 09:01:00,
2013-12-08 03:06:00,18.2,6.7,30.45,SE,132,2.0,10.0,60,0.00,,---,0.00,VWS V14.01,2013-12-08 09:06:00,
2013-12-08 03:10:00,18.2,5.9,30.49,East,85,1.0,7.0,58,0.00,,---,0.00,VWS V14.01,2013-12-08 09:10:00,
2013-12-08 03:11:00,18.1,6.6,30.45,ENE,78,0.0,4.0,60,0.00,,---,0.00,VWS V14.01,2013-12-08 09:11:00,
2013-12-08 03:16:00,18.0,6.8,30.45,ESE,103,1.0,7.0,61,0.00,,---,0.00,VWS V14.01,2013-12-08 09:16:00,
2013-12-08 03:20:00,18.1,5.8,30.48,East,95,0.0,5.0,58,0.00,,---,0.00,VWS V14.01,2013-12-08 09:20:00,
2013-12-08 03:21:00,18.0,6.8,30.45,SE,141,2.0,6.0,61,0.00,,---,0.00,VWS V14.01,2013-12-08 09:21:00,
2013-12-08 03:26:00,17.8,7.3,30.44,East,85,5.0,8.0,63,0.00,,---,0.00,VWS V14.01,2013-12-08 09:26:00,
2013-12-08 03:30:00,18.1,6.2,30.47,ESE,107,1.0,6.0,59,0.00,,---,0.00,VWS V14.01,2013-12-08 09:30:00,
2013-12-08 03:31:00,17.7,8.3,30.44,East,82,2.0,6.0,66,0.00,,---,0.00,VWS V14.01,2013-12-08 09:31:00,
2013-12-08 03:36:00,17.5,8.8,30.43,East,83,3.0,6.0,68,0.00,,---,0.00,VWS V14.01,2013-12-08 09:36:00,
2013-12-08 03:40:00,18.2,5.9,30.47,East,84,4.0,5.0,58,0.00,,---,0.00,VWS V14.01,2013-12-08 09:40:00,
2013-12-08 03:41:00,17.3,9.5,30.44,ESE,107,1.0,7.0,71,0.00,,---,0.00,VWS V14.01,2013-12-08 09:41:00,
2013-12-08 03:46:00,17.1,9.9,30.43,East,87,1.0,8.0,73,0.00,,---,0.00,VWS V14.01,2013-12-08 09:46:00,
2013-12-08 03:50:00,18.2,5.9,30.47,SE,127,2.0,7.0,58,0.00,,---,0.00,VWS V14.01,2013-12-08 09:50:00,
2013-12-08 03:51:00,16.9,10.4,30.42,ESE,109,2.0,3.0,75,0.00,,---,0.00,VWS V14.01,2013-12-08 09:51:00,
2013-12-08 03:56:00,16.7,10.5,30.42,ESE,113,0.0,5.0,76,0.00,,---,0.00,VWS V14.01,2013-12-08 09:56:00,
2013-12-08 04:00:00,18.2,6.3,30.46,ESE,113,0.0,8.0,59,0.00,,---,0.00,VWS V14.01,2013-12-08 10:00:00,
2013-12-08 04:01:00,16.6,10.9,30.42,SE,133,0.0,1.0,78,0.00,,---,0.00,VWS V14.01,2013-12-08 10:01:00,
2013-12-08 04:06:00,16.5,11.1,30.41,SE,125,0.0,4.0,79,0.00,,---,0.00,VWS V14.01,2013-12-08 10:06:00,
2013-12-08 04:10:00,18.1,6.6,30.45,ESE,111,2.0,10.0,60,0.00,,---,0.00,VWS V14.01,2013-12-08 10:10:00,
2013-12-08 04:11:00,16.4,11.0,30.41,East,79,2.0,5.0,79,0.00,,---,0.00,VWS V14.01,2013-12-08 10:11:00,
2013-12-08 04:16:00,16.2,10.8,30.41,ENE,69,1.0,8.0,79,0.00,,---,0.00,VWS V14.01,2013-12-08 10:16:00,
2013-12-08 04:20:00,18.0,6.8,30.45,East,79,4.0,7.0,61,0.00,,---,0.00,VWS V14.01,2013-12-08 10:20:00,
2013-12-08 04:21:00,16.1,11.0,30.41,East,85,0.0,5.0,80,0.00,,---,0.00,VWS V14.01,2013-12-08 10:21:00,
2013-12-08 04:26:00,16.1,11.3,30.40,SSE,157,1.0,6.0,81,0.00,,---,0.00,VWS V14.01,2013-12-08 10:26:00,
2013-12-08 04:30:00,17.7,7.9,30.44,ESE,105,2.0,8.0,65,0.00,,---,0.00,VWS V14.01,2013-12-08 10:30:00,
2013-12-08 04:31:00,16.0,11.2,30.40,East,84,1.0,5.0,81,0.00,,---,0.00,VWS V14.01,2013-12-08 10:31:00,
2013-12-08 04:36:00,16.0,11.5,30.40,East,95,0.0,5.0,82,0.00,,---,0.00,VWS V14.01,2013-12-08 10:36:00,
2013-12-08 04:40:00,17.4,9.3,30.44,East,94,4.0,7.0,70,0.00,,---,0.00,VWS V14.01,2013-12-08 10:40:00,
2013-12-08 04:41:00,16.0,11.5,30.39,SE,126,0.0,2.0,82,0.00,,---,0.00,VWS V14.01,2013-12-08 10:41:00,
2013-12-08 04:46:00,15.9,11.4,30.39,ESE,112,0.0,5.0,82,0.00,,---,0.00,VWS V14.01,2013-12-08 10:46:00,
2013-12-08 04:50:00,17.0,10.2,30.43,East,87,0.0,8.0,74,0.00,,---,0.00,VWS V14.01,2013-12-08 10:50:00,
2013-12-08 04:51:00,15.9,11.4,30.38,ESE,112,0.0,0.0,82,0.00,,---,0.00,VWS V14.01,2013-12-08 10:51:00,
2013-12-08 04:56:00,15.9,11.4,30.38,ESE,115,1.0,2.0,82,0.00,,---,0.00,VWS V14.01,2013-12-08 10:56:00,
2013-12-08 05:00:00,16.6,10.7,30.42,ESE,113,1.0,5.0,77,0.00,,---,0.00,VWS V14.01,2013-12-08 11:00:00,
2013-12-08 05:01:00,15.9,11.4,30.38,ESE,112,1.0,4.0,82,0.00,,---,0.00,VWS V14.01,2013-12-08 11:01:00,
2013-12-08 05:06:00,15.9,11.4,30.36,East,86,0.0,7.0,82,0.00,,---,0.00,VWS V14.01,2013-12-08 11:06:00,
2013-12-08 05:10:00,16.5,11.1,30.41,NE,52,2.0,4.0,79,0.00,,---,0.00,VWS V14.01,2013-12-08 11:10:00,
2013-12-08 05:11:00,15.8,11.3,30.36,East,84,3.0,7.0,82,0.00,,---,0.00,VWS V14.01,2013-12-08 11:11:00,
2013-12-08 05:16:00,15.7,11.5,30.35,ENE,69,2.0,7.0,83,0.00,,---,0.00,VWS V14.01,2013-12-08 11:16:00,
2013-12-08 05:20:00,16.1,11.0,30.41,East,89,1.0,8.0,80,0.00,,---,0.00,VWS V14.01,2013-12-08 11:20:00,
2013-12-08 05:21:00,15.7,11.5,30.35,SSE,150,4.0,4.0,83,0.00,,---,0.00,VWS V14.01,2013-12-08 11:21:00,
2013-12-08 05:26:00,15.7,11.5,30.35,SE,138,2.0,5.0,83,0.00,,---,0.00,VWS V14.01,2013-12-08 11:26:00,
2013-12-08 05:30:00,16.1,11.3,30.40,ESE,119,2.0,6.0,81,0.00,,---,0.00,VWS V14.01,2013-12-08 11:30:00,
2013-12-08 05:31:00,15.7,11.5,30.35,ESE,103,1.0,5.0,83,0.00,,---,0.00,VWS V14.01,2013-12-08 11:31:00,
2013-12-08 05:36:00,15.7,11.5,30.35,SE,131,1.0,6.0,83,0.00,,---,0.00,VWS V14.01,2013-12-08 11:36:00,
2013-12-08 05:40:00,16.0,11.5,30.40,East,91,2.0,5.0,82,0.00,,---,0.00,VWS V14.01,2013-12-08 11:40:00,
2013-12-08 05:41:00,15.7,11.5,30.34,ESE,112,2.0,4.0,83,0.00,,---,0.00,VWS V14.01,2013-12-08 11:41:00,
2013-12-08 05:46:00,15.7,11.5,30.34,ESE,103,0.0,5.0,83,0.00,,---,0.00,VWS V14.01,2013-12-08 11:46:00,
2013-12-08 05:50:00,15.9,11.4,30.39,ESE,112,0.0,5.0,82,0.00,,---,0.00,VWS V14.01,2013-12-08 11:50:00,
2013-12-08 05:51:00,15.7,11.5,30.34,East,95,2.0,7.0,83,0.00,,---,0.00,VWS V14.01,2013-12-08 11:51:00,
2013-12-08 05:56:00,15.7,11.7,30.33,ESE,123,1.0,7.0,84,0.00,,---,0.00,VWS V14.01,2013-12-08 11:56:00,
2013-12-08 06:00:00,15.9,11.4,30.38,East,97,0.0,2.0,82,0.00,,---,0.00,VWS V14.01,2013-12-08 12:00:00,
2013-12-08 06:01:00,15.6,11.6,30.33,ESE,113,1.0,3.0,84,0.00,,---,0.00,VWS V14.01,2013-12-08 12:01:00,
2013-12-08 06:06:00,15.7,11.7,30.33,East,95,2.0,4.0,84,0.00,,---,0.00,VWS V14.01,2013-12-08 12:06:00,
2013-12-08 06:10:00,15.8,11.3,30.36,ESE,117,0.0,7.0,82,0.00,,---,0.00,VWS V14.01,2013-12-08 12:10:00,
2013-12-08 06:11:00,15.7,11.7,30.33,East,83,2.0,4.0,84,0.00,,---,0.00,VWS V14.01,2013-12-08 12:11:00,
2013-12-08 06:16:00,15.6,11.6,30.32,ENE,61,1.0,6.0,84,0.00,,---,0.00,VWS V14.01,2013-12-08 12:16:00,
2013-12-08 06:20:00,15.7,11.5,30.35,East,83,3.0,7.0,83,0.00,,---,0.00,VWS V14.01,2013-12-08 12:20:00,
2013-12-08 06:21:00,15.6,11.6,30.32,East,98,4.0,6.0,84,0.00,,---,0.00,VWS V14.01,2013-12-08 12:21:00,
2013-12-08 06:26:00,15.6,11.6,30.32,ESE,111,2.0,6.0,84,0.00,,---,0.00,VWS V14.01,2013-12-08 12:26:00,
2013-12-08 06:30:00,15.7,11.5,30.35,ESE,112,1.0,5.0,83,0.00,,---,0.00,VWS V14.01,2013-12-08 12:30:00,
2013-12-08 06:31:00,15.6,11.6,30.32,East,80,2.0,4.0,84,0.00,,---,0.00,VWS V14.01,2013-12-08 12:31:00,
2013-12-08 06:36:00,15.6,11.6,30.32,SE,143,1.0,6.0,84,0.00,,---,0.00,VWS V14.01,2013-12-08 12:36:00,
2013-12-08 06:40:00,15.7,11.5,30.34,East,84,3.0,6.0,83,0.00,,---,0.00,VWS V14.01,2013-12-08 12:40:00,
2013-12-08 06:41:00,15.7,11.7,30.32,ENE,75,2.0,4.0,84,0.00,,---,0.00,VWS V14.01,2013-12-08 12:41:00,
2013-12-08 06:46:00,15.7,11.7,30.31,ESE,118,1.0,6.0,84,0.00,,---,0.00,VWS V14.01,2013-12-08 12:46:00,
2013-12-08 06:50:00,15.7,11.5,30.34,NE,42,0.0,5.0,83,0.00,,---,0.00,VWS V14.01,2013-12-08 12:50:00,
2013-12-08 06:51:00,15.7,11.7,30.31,ENE,71,2.0,6.0,84,0.00,,---,0.00,VWS V14.01,2013-12-08 12:51:00,
2013-12-08 06:56:00,15.7,11.7,30.31,SSE,166,1.0,7.0,84,0.00,,---,0.00,VWS V14.01,2013-12-08 12:56:00,
2013-12-08 07:00:00,15.6,11.6,30.33,East,79,2.0,7.0,84,0.00,,---,0.00,VWS V14.01,2013-12-08 13:00:00,
2013-12-08 07:01:00,15.7,11.7,30.30,East,97,2.0,6.0,84,0.00,,---,0.00,VWS V14.01,2013-12-08 13:01:00,
2013-12-08 07:06:00,15.7,11.7,30.30,ENE,67,0.0,6.0,84,0.00,,---,0.00,VWS V14.01,2013-12-08 13:06:00,
2013-12-08 07:10:00,15.7,11.7,30.33,East,92,1.0,7.0,84,0.00,,---,0.00,VWS V14.01,2013-12-08 13:10:00,
2013-12-08 07:11:00,15.7,11.7,30.30,ENE,67,0.0,0.0,84,0.00,,---,0.00,VWS V14.01,2013-12-08 13:11:00,
2013-12-08 07:16:00,15.8,11.8,30.30,ESE,120,0.0,2.0,84,0.00,,---,0.00,VWS V14.01,2013-12-08 13:16:00,
2013-12-08 07:20:00,15.6,11.6,30.32,East,88,0.0,7.0,84,0.00,,---,0.00,VWS V14.01,2013-12-08 13:20:00,
2013-12-08 07:21:00,15.8,11.8,30.31,SE,136,0.0,4.0,84,0.00,,---,0.00,VWS V14.01,2013-12-08 13:21:00,
2013-12-08 07:26:00,15.8,11.8,30.30,East,80,1.0,8.0,84,0.00,,---,0.00,VWS V14.01,2013-12-08 13:26:00,
2013-12-08 07:30:00,15.6,11.6,30.32,ESE,121,1.0,6.0,84,0.00,,---,0.00,VWS V14.01,2013-12-08 13:30:00,
2013-12-08 07:31:00,15.8,12.1,30.30,SSE,163,0.0,4.0,85,0.00,,---,0.00,VWS V14.01,2013-12-08 13:31:00,
2013-12-08 07:36:00,15.9,12.2,30.30,East,80,4.0,4.0,85,0.00,,---,0.00,VWS V14.01,2013-12-08 13:36:00,
2013-12-08 07:40:00,15.7,11.7,30.32,SSE,151,4.0,6.0,84,0.00,,---,0.00,VWS V14.01,2013-12-08 13:40:00,
2013-12-08 07:41:00,15.9,12.2,30.30,ENE,75,2.0,3.0,85,0.00,,---,0.00,VWS V14.01,2013-12-08 13:41:00,
2013-12-08 07:46:00,15.9,12.2,30.30,East,87,0.0,4.0,85,0.00,,---,0.00,VWS V14.01,2013-12-08 13:46:00,
2013-12-08 07:50:00,15.7,11.7,30.31,SE,138,0.0,6.0,84,0.00,,---,0.00,VWS V14.01,2013-12-08 13:50:00,
2013-12-08 07:51:00,15.9,12.2,30.31,East,83,0.0,3.0,85,0.00,,---,0.00,VWS V14.01,2013-12-08 13:51:00,
2013-12-08 07:56:00,15.9,12.2,30.30,East,92,1.0,4.0,85,0.00,,---,0.00,VWS V14.01,2013-12-08 13:56:00,
2013-12-08 08:00:00,15.7,11.7,30.30,ESE,121,1.0,7.0,84,0.00,,---,0.00,VWS V14.01,2013-12-08 14:00:00,
2013-12-08 08:01:00,15.9,12.2,30.30,NE,40,0.0,3.0,85,0.00,,---,0.00,VWS V14.01,2013-12-08 14:01:00,
2013-12-08 08:06:00,16.0,12.3,30.30,SE,130,0.0,5.0,85,0.00,,---,0.00,VWS V14.01,2013-12-08 14:06:00,
2013-12-08 08:10:00,15.7,11.7,30.31,ENE,67,0.0,6.0,84,0.00,,---,0.00,VWS V14.01,2013-12-08 14:10:00,
2013-12-08 08:11:00,16.1,12.4,30.30,ESE,108,0.0,4.0,85,0.00,,---,0.00,VWS V14.01,2013-12-08 14:11:00,
2013-12-08 08:16:00,16.2,12.5,30.30,ESE,109,0.0,4.0,85,0.00,,---,0.00,VWS V14.01,2013-12-08 14:16:00,
2013-12-08 08:20:00,15.8,11.8,30.30,East,98,2.0,6.0,84,0.00,,---,0.00,VWS V14.01,2013-12-08 14:20:00,
2013-12-08 08:21:00,16.3,12.6,30.30,ESE,107,1.0,2.0,85,0.00,,---,0.00,VWS V14.01,2013-12-08 14:21:00,
2013-12-08 08:26:00,16.4,12.7,30.31,ENE,77,0.0,6.0,85,0.00,,---,0.00,VWS V14.01,2013-12-08 14:26:00,
2013-12-08 08:30:00,15.8,12.1,30.30,SSE,163,0.0,8.0,85,0.00,,---,0.00,VWS V14.01,2013-12-08 14:30:00,
2013-12-08 08:31:00,16.4,12.7,30.30,East,84,3.0,3.0,85,0.00,,---,0.00,VWS V14.01,2013-12-08 14:31:00,
2013-12-08 08:36:00,16.6,12.9,30.30,ESE,107,1.0,4.0,85,0.00,,---,0.00,VWS V14.01,2013-12-08 14:36:00,
2013-12-08 08:40:00,15.8,12.1,30.31,East,82,0.0,4.0,85,0.00,,---,0.00,VWS V14.01,2013-12-08 14:40:00,
2013-12-08 08:41:00,16.7,13.2,30.30,ESE,107,0.0,2.0,86,0.00,,---,0.00,VWS V14.01,2013-12-08 14:41:00,
2013-12-08 08:46:00,16.7,13.2,30.30,ESE,108,0.0,4.0,86,0.00,,---,0.00,VWS V14.01,2013-12-08 14:46:00,
2013-12-08 08:50:00,15.9,12.2,30.30,ESE,121,2.0,4.0,85,0.00,,---,0.00,VWS V14.01,2013-12-08 14:50:00,
2013-12-08 08:51:00,16.8,13.1,30.29,ENE,69,3.0,5.0,85,0.00,,---,0.00,VWS V14.01,2013-12-08 14:51:00,
2013-12-08 08:56:00,16.8,13.4,30.30,ENE,76,4.0,5.0,86,0.00,,---,0.00,VWS V14.01,2013-12-08 14:56:00,
2013-12-08 09:00:00,16.0,12.3,30.30,SE,125,0.0,4.0,85,0.00,,---,0.00,VWS V14.01,2013-12-08 15:00:00,
2013-12-08 09:01:00,16.9,13.4,30.30,ESE,118,2.0,2.0,86,0.00,,---,0.00,VWS V14.01,2013-12-08 15:01:00,
2013-12-08 09:06:00,17.0,13.5,30.29,East,84,0.0,3.0,86,0.00,,---,0.00,VWS V14.01,2013-12-08 15:06:00,
2013-12-08 09:10:00,16.1,12.4,30.30,SE,130,0.0,5.0,85,0.00,,---,0.00,VWS V14.01,2013-12-08 15:10:00,
2013-12-08 09:11:00,17.1,13.6,30.29,ENE,75,1.0,4.0,86,0.00,,---,0.00,VWS V14.01,2013-12-08 15:11:00,
2013-12-08 09:16:00,17.1,13.6,30.30,ENE,78,1.0,4.0,86,0.00,,---,0.00,VWS V14.01,2013-12-08 15:16:00,
2013-12-08 09:20:00,16.2,12.8,30.30,ESE,109,0.0,4.0,86,0.00,,---,0.00,VWS V14.01,2013-12-08 15:20:00,
2013-12-08 09:21:00,17.2,13.5,30.29,SE,136,0.0,2.0,85,0.00,,---,0.00,VWS V14.01,2013-12-08 15:21:00,
2013-12-08 09:26:00,17.3,13.8,30.29,ESE,121,1.0,2.0,86,0.00,,---,0.00,VWS V14.01,2013-12-08 15:26:00,
2013-12-08 09:30:00,16.4,12.7,30.31,ESE,117,1.0,6.0,85,0.00,,---,0.00,VWS V14.01,2013-12-08 15:30:00,
2013-12-08 09:31:00,17.4,13.9,30.29,ESE,107,0.0,1.0,86,0.00,,---,0.00,VWS V14.01,2013-12-08 15:31:00,
2013-12-08 09:36:00,17.6,14.1,30.29,East,84,0.0,1.0,86,0.00,,---,0.00,VWS V14.01,2013-12-08 15:36:00,
2013-12-08 09:40:00,16.6,13.1,30.30,ESE,107,0.0,4.0,86,0.00,,---,0.00,VWS V14.01,2013-12-08 15:40:00,
2013-12-08 09:41:00,17.8,14.3,30.29,SSE,150,0.0,1.0,86,0.00,,---,0.00,VWS V14.01,2013-12-08 15:41:00,
2013-12-08 09:46:00,17.9,14.4,30.29,ESE,112,1.0,2.0,86,0.00,,---,0.00,VWS V14.01,2013-12-08 15:46:00,
2013-12-08 09:50:00,16.8,13.4,30.30,East,80,5.0,7.0,86,0.00,,---,0.00,VWS V14.01,2013-12-08 15:50:00,
2013-12-08 09:51:00,17.9,14.2,30.29,East,79,0.0,4.0,85,0.00,,---,0.00,VWS V14.01,2013-12-08 15:51:00,
2013-12-08 09:56:00,17.9,13.9,30.29,East,98,0.0,5.0,84,0.00,,---,0.00,VWS V14.01,2013-12-08 15:56:00,
2013-12-08 10:00:00,16.9,13.4,30.30,East,79,0.0,5.0,86,0.00,,---,0.00,VWS V14.01,2013-12-08 16:00:00,
2013-12-08 10:01:00,17.9,14.2,30.28,East,98,0.0,1.0,85,0.00,,---,0.00,VWS V14.01,2013-12-08 16:01:00,
2013-12-08 10:06:00,18.0,14.3,30.28,East,88,0.0,5.0,85,0.00,,---,0.00,VWS V14.01,2013-12-08 16:06:00,
2013-12-08 10:10:00,17.0,13.5,30.29,South,172,1.0,5.0,86,0.00,,---,0.00,VWS V14.01,2013-12-08 16:10:00,
2013-12-08 10:11:00,18.1,14.1,30.28,ESE,104,0.0,4.0,84,0.00,,---,0.00,VWS V14.01,2013-12-08 16:11:00,
2013-12-08 10:16:00,18.2,14.2,30.27,ESE,118,2.0,5.0,84,0.00,,---,0.00,VWS V14.01,2013-12-08 16:16:00,
2013-12-08 10:20:00,17.2,13.7,30.29,East,84,2.0,4.0,86,0.00,,---,0.00,VWS V14.01,2013-12-08 16:20:00,
2013-12-08 10:21:00,18.4,14.4,30.27,ESE,106,1.0,2.0,84,0.00,,---,0.00,VWS V14.01,2013-12-08 16:21:00,
2013-12-08 10:26:00,18.5,14.5,30.27,SSE,161,2.0,6.0,84,0.00,,---,0.00,VWS V14.01,2013-12-08 16:26:00,
2013-12-08 10:30:00,17.4,13.9,30.29,ESE,107,0.0,3.0,86,0.00,,---,0.00,VWS V14.01,2013-12-08 16:30:00,
2013-12-08 10:31:00,18.5,14.5,30.26,ENE,68,0.0,3.0,84,0.00,,---,0.00,VWS V14.01,2013-12-08 16:31:00,
2013-12-08 10:36:00,18.6,14.9,30.26,SSE,156,4.0,4.0,85,0.00,,---,0.00,VWS V14.01,2013-12-08 16:36:00,
2013-12-08 10:40:00,17.7,14.2,30.29,SSE,150,0.0,4.0,86,0.00,,---,0.00,VWS V14.01,2013-12-08 16:40:00,
2013-12-08 10:41:00,18.7,14.7,30.26,ESE,116,1.0,1.0,84,0.00,,---,0.00,VWS V14.01,2013-12-08 16:41:00,
2013-12-08 10:46:00,18.8,15.1,30.26,ENE,76,1.0,4.0,85,0.00,,---,0.00,VWS V14.01,2013-12-08 16:46:00,
2013-12-08 10:50:00,17.9,14.2,30.29,ESE,103,0.0,4.0,85,0.00,,---,0.00,VWS V14.01,2013-12-08 16:50:00,
2013-12-08 10:51:00,18.8,15.1,30.26,ENE,73,4.0,5.0,85,0.00,,---,0.00,VWS V14.01,2013-12-08 16:51:00,
2013-12-08 10:56:00,18.9,15.1,30.26,East,86,1.0,5.0,85,0.00,,---,0.00,VWS V14.01,2013-12-08 16:56:00,
2013-12-08 11:00:00,17.9,14.2,30.28,East,98,0.0,5.0,85,0.00,,---,0.00,VWS V14.01,2013-12-08 17:00:00,
2013-12-08 11:01:00,19.0,15.2,30.26,SSW,205,0.0,2.0,85,0.00,,---,0.00,VWS V14.01,2013-12-08 17:01:00,
2013-12-08 11:06:00,19.2,15.7,30.25,SSW,205,0.0,2.0,86,0.00,,---,0.00,VWS V14.01,2013-12-08 17:06:00,
2013-12-08 11:10:00,18.1,14.1,30.28,ESE,107,0.0,5.0,84,0.00,,---,0.00,VWS V14.01,2013-12-08 17:10:00,
2013-12-08 11:11:00,19.3,15.5,30.25,East,90,1.0,1.0,85,0.00,,---,0.00,VWS V14.01,2013-12-08 17:11:00,
2013-12-08 11:16:00,19.3,15.5,30.24,East,90,1.0,1.0,85,0.00,,---,0.00,VWS V14.01,2013-12-08 17:16:00,
2013-12-08 11:20:00,18.3,14.3,30.27,ESE,107,0.0,5.0,84,0.00,,---,0.00,VWS V14.01,2013-12-08 17:20:00,
2013-12-08 11:21:00,19.3,15.5,30.24,East,90,1.0,1.0,85,0.00,,---,0.00,VWS V14.01,2013-12-08 17:21:00,
2013-12-08 11:26:00,19.3,15.5,30.24,East,90,1.0,1.0,85,0.00,,---,0.00,VWS V14.01,2013-12-08 17:26:00,
2013-12-08 11:30:00,18.5,14.5,30.26,East,88,1.0,6.0,84,0.00,,---,0.00,VWS V14.01,2013-12-08 17:30:00,
2013-12-08 11:31:00,19.3,15.5,30.22,East,90,1.0,1.0,85,0.00,,---,0.00,VWS V14.01,2013-12-08 17:31:00,
2013-12-08 11:36:00,20.0,16.2,30.21,East,92,0.0,1.0,85,0.00,,---,0.00,VWS V14.01,2013-12-08 17:36:00,
2013-12-08 11:40:00,18.7,14.9,30.26,ESE,116,0.0,5.0,85,0.00,,---,0.00,VWS V14.01,2013-12-08 17:40:00,
2013-12-08 11:41:00,20.1,16.3,30.21,East,90,0.0,4.0,85,0.00,,---,0.00,VWS V14.01,2013-12-08 17:41:00,
2013-12-08 11:46:00,20.2,16.4,30.21,East,94,0.0,4.0,85,0.00,,---,0.00,VWS V14.01,2013-12-08 17:46:00,
2013-12-08 11:50:00,18.8,15.1,30.26,East,94,1.0,4.0,85,0.00,,---,0.00,VWS V14.01,2013-12-08 17:50:00,
2013-12-08 11:51:00,20.4,16.6,30.21,ENE,71,1.0,2.0,85,0.00,,---,0.00,VWS V14.01,2013-12-08 17:51:00,
2013-12-08 11:56:00,20.4,16.4,30.21,East,84,0.0,4.0,84,0.00,,---,0.00,VWS V14.01,2013-12-08 17:56:00,
2013-12-08 12:00:00,18.9,15.1,30.26,SSW,205,2.0,5.0,85,0.00,,---,0.00,VWS V14.01,2013-12-08 18:00:00,
2013-12-08 12:01:00,20.3,16.2,30.20,ESE,112,1.0,5.0,84,0.00,,---,0.00,VWS V14.01,2013-12-08 18:01:00,
2013-12-08 12:06:00,20.2,16.1,30.20,ENE,59,0.0,5.0,84,0.00,,---,0.00,VWS V14.01,2013-12-08 18:06:00,
2013-12-08 12:10:00,19.3,15.5,30.25,East,90,1.0,4.0,85,0.00,,---,0.00,VWS V14.01,2013-12-08 18:10:00,
2013-12-08 12:11:00,20.2,16.4,30.20,ENE,59,0.0,0.0,85,0.00,,---,0.00,VWS V14.01,2013-12-08 18:11:00,
2013-12-08 12:16:00,20.3,16.5,30.20,ESE,118,1.0,2.0,85,0.00,,---,0.00,VWS V14.01,2013-12-08 18:16:00,
2013-12-08 12:20:00,19.3,15.5,30.24,East,90,1.0,1.0,85,0.00,,---,0.00,VWS V14.01,2013-12-08 18:20:00,
2013-12-08 12:21:00,20.4,16.6,30.20,ESE,105,0.0,2.0,85,0.00,,---,0.00,VWS V14.01,2013-12-08 18:21:00,
2013-12-08 12:26:00,20.4,16.6,30.19,ESE,105,0.0,2.0,85,0.00,,---,0.00,VWS V14.01,2013-12-08 18:26:00,
2013-12-08 12:30:00,19.3,15.5,30.22,East,90,1.0,1.0,85,0.00,,---,0.00,VWS V14.01,2013-12-08 18:30:00,
2013-12-08 12:31:00,20.4,16.6,30.19,ESE,105,0.0,0.0,85,0.00,,---,0.00,VWS V14.01,2013-12-08 18:31:00,
2013-12-08 12:36:00,20.4,16.6,30.19,ESE,105,0.0,0.0,85,0.00,,---,0.00,VWS V14.01,2013-12-08 18:36:00,
2013-12-08 12:40:00,20.1,16.3,30.21,East,92,0.0,2.0,85,0.00,,---,0.00,VWS V14.01,2013-12-08 18:40:00,
2013-12-08 12:41:00,20.4,16.6,30.19,ESE,105,0.0,0.0,85,0.00,,---,0.00,VWS V14.01,2013-12-08 18:41:00,
2013-12-08 12:46:00,20.4,16.6,30.19,ESE,105,0.0,0.0,85,0.00,,---,0.00,VWS V14.01,2013-12-08 18:46:00,
2013-12-08 12:50:00,20.4,16.6,30.21,East,95,1.0,4.0,85,0.00,,---,0.00,VWS V14.01,2013-12-08 18:50:00,
2013-12-08 12:51:00,21.1,17.0,30.18,East,87,0.0,1.0,84,0.00,,---,0.00,VWS V14.01,2013-12-08 18:51:00,
2013-12-08 12:56:00,21.1,17.0,30.18,East,87,0.0,2.0,84,0.00,,---,0.00,VWS V14.01,2013-12-08 18:56:00,
2013-12-08 13:00:00,20.3,16.2,30.20,ESE,103,1.0,4.0,84,0.00,,---,0.00,VWS V14.01,2013-12-08 19:00:00,
2013-12-08 13:01:00,21.3,17.2,30.17,East,87,0.0,0.0,84,0.00,,---,0.00,VWS V14.01,2013-12-08 19:01:00,
2013-12-08 13:06:00,21.4,17.0,30.17,East,93,0.0,3.0,83,0.00,,---,0.00,VWS V14.01,2013-12-08 19:06:00,
2013-12-08 13:10:00,20.2,16.4,30.20,ENE,59,0.0,5.0,85,0.00,,---,0.00,VWS V14.01,2013-12-08 19:10:00,
2013-12-08 13:11:00,21.3,17.2,30.16,East,94,0.0,1.0,84,0.00,,---,0.00,VWS V14.01,2013-12-08 19:11:00,
2013-12-08 13:16:00,21.4,17.3,30.16,East,82,2.0,5.0,84,0.00,,---,0.00,VWS V14.01,2013-12-08 19:16:00,
2013-12-08 13:20:00,20.4,16.6,30.20,ESE,105,0.0,4.0,85,0.00,,---,0.00,VWS V14.01,2013-12-08 19:20:00,
2013-12-08 13:21:00,21.5,17.4,30.15,East,83,0.0,1.0,84,0.00,,---,0.00,VWS V14.01,2013-12-08 19:21:00,
2013-12-08 13:26:00,21.5,17.4,30.15,East,83,0.0,3.0,84,0.00,,---,0.00,VWS V14.01,2013-12-08 19:26:00,
2013-12-08 13:30:00,20.4,16.6,30.19,ESE,105,0.0,2.0,85,0.00,,---,0.00,VWS V14.01,2013-12-08 19:30:00,
2013-12-08 13:31:00,21.6,19.6,30.15,East,94,0.0,1.0,92,0.00,,---,0.00,VWS V14.01,2013-12-08 19:31:00,
2013-12-08 13:36:00,21.7,17.9,30.15,East,94,0.0,1.0,85,0.00,,---,0.00,VWS V14.01,2013-12-08 19:36:00,
2013-12-08 13:40:00,20.4,16.6,30.19,ESE,105,0.0,0.0,85,0.00,,---,0.00,VWS V14.01,2013-12-08 19:40:00,
2013-12-08 13:41:00,21.8,18.0,30.15,SE,146,0.0,4.0,85,0.00,,---,0.00,VWS V14.01,2013-12-08 19:41:00,
2013-12-08 13:46:00,21.9,18.1,30.14,SE,146,0.0,4.0,85,0.00,,---,0.00,VWS V14.01,2013-12-08 19:46:00,
2013-12-08 13:50:00,21.1,16.8,30.18,East,87,0.0,2.0,83,0.00,,---,0.00,VWS V14.01,2013-12-08 19:50:00,
2013-12-08 13:51:00,22.1,18.3,30.15,SE,146,0.0,1.0,85,0.00,,---,0.00,VWS V14.01,2013-12-08 19:51:00,
2013-12-08 13:56:00,22.2,18.1,30.15,ESE,106,1.0,2.0,84,0.00,,---,0.00,VWS V14.01,2013-12-08 19:56:00,
2013-12-08 14:00:00,21.2,17.1,30.17,East,87,0.0,2.0,84,0.00,,---,0.00,VWS V14.01,2013-12-08 20:00:00,
2013-12-08 14:01:00,22.1,18.0,30.15,ESE,106,0.0,1.0,84,0.00,,---,0.00,VWS V14.01,2013-12-08 20:01:00,
2013-12-08 14:06:00,22.1,18.0,30.15,ESE,106,0.0,2.0,84,0.00,,---,0.00,VWS V14.01,2013-12-08 20:06:00,
2013-12-08 14:10:00,22.0,17.9,30.15,ESE,106,0.0,1.0,84,0.00,,---,0.00,VWS V14.01,2013-12-08 20:10:00,
2013-12-08 14:15:00,22.1,18.0,30.14,ESE,106,0.0,1.0,84,0.00,,---,0.00,VWS V14.01,2013-12-08 20:15:00,
2013-12-08 14:20:00,22.1,18.3,30.14,ESE,106,0.0,0.0,85,0.00,,---,0.00,VWS V14.01,2013-12-08 20:20:00,
2013-12-08 14:25:00,22.2,18.4,30.13,ESE,106,0.0,1.0,85,0.00,,---,0.00,VWS V14.01,2013-12-08 20:25:00,
2013-12-08 14:30:00,22.2,18.1,30.13,ESE,106,0.0,1.0,84,0.00,,---,0.00,VWS V14.01,2013-12-08 20:30:00,
2013-12-08 14:36:00,22.2,18.4,30.13,ESE,106,0.0,1.0,85,0.00,,---,0.00,VWS V14.01,2013-12-08 20:36:00,
2013-12-08 14:40:00,22.3,18.5,30.13,ESE,106,0.0,2.0,85,0.00,,---,0.00,VWS V14.01,2013-12-08 20:40:00,
2013-12-08 14:45:00,22.3,20.3,30.14,ESE,106,0.0,2.0,92,0.00,,---,0.00,VWS V14.01,2013-12-08 20:45:00,
2013-12-08 14:50:00,22.1,18.0,30.13,ESE,106,0.0,0.0,84,0.00,,---,0.00,VWS V14.01,2013-12-08 20:50:00,
2013-12-08 14:55:00,22.0,17.9,30.13,ESE,106,0.0,2.0,84,0.00,,---,0.00,VWS V14.01,2013-12-08 20:55:00,
2013-12-08 15:00:00,21.9,17.8,30.13,ESE,106,0.0,0.0,84,0.00,,---,0.00,VWS V14.01,2013-12-08 21:00:00,
2013-12-08 15:05:00,21.8,18.0,30.13,ESE,106,0.0,0.0,85,0.00,,---,0.00,VWS V14.01,2013-12-08 21:05:00,
2013-12-08 15:10:00,21.9,18.1,30.13,ESE,106,1.0,1.0,85,0.00,,---,0.00,VWS V14.01,2013-12-08 21:10:00,
2013-12-08 15:15:00,21.9,18.1,30.13,ESE,106,0.0,1.0,85,0.00,,---,0.00,VWS V14.01,2013-12-08 21:15:00,
2013-12-08 15:20:00,21.9,18.1,30.13,ESE,106,1.0,2.0,85,0.00,,---,0.00,VWS V14.01,2013-12-08 21:20:00,
2013-12-08 15:25:00,21.8,18.0,30.13,ESE,106,1.0,2.0,85,0.00,,---,0.00,VWS V14.01,2013-12-08 21:25:00,
2013-12-08 15:30:00,21.8,18.0,30.14,ESE,106,0.0,1.0,85,0.00,,---,0.00,VWS V14.01,2013-12-08 21:30:00,
2013-12-08 15:35:00,21.8,18.3,30.13,ESE,106,0.0,1.0,86,0.00,,---,0.00,VWS V14.01,2013-12-08 21:35:00,
2013-12-08 15:40:00,21.7,17.9,30.13,ESE,106,0.0,0.0,85,0.00,,---,0.00,VWS V14.01,2013-12-08 21:40:00,
2013-12-08 15:45:00,21.7,18.2,30.13,ESE,106,1.0,2.0,86,0.00,,---,0.00,VWS V14.01,2013-12-08 21:45:00,
2013-12-08 15:50:00,21.7,18.2,30.13,ESE,106,0.0,1.0,86,0.00,,---,0.00,VWS V14.01,2013-12-08 21:50:00,
2013-12-08 15:55:00,21.8,18.3,30.13,ESE,106,0.0,1.0,86,0.00,,---,0.00,VWS V14.01,2013-12-08 21:55:00,
2013-12-08 16:00:00,21.8,18.3,30.13,ESE,106,0.0,1.0,86,0.00,,---,0.00,VWS V14.01,2013-12-08 22:00:00,
2013-12-08 16:05:00,21.7,18.2,30.13,ESE,106,0.0,1.0,86,0.00,,---,0.00,VWS V14.01,2013-12-08 22:05:00,
2013-12-08 16:10:00,21.8,18.3,30.13,ESE,106,0.0,0.0,86,0.00,,---,0.00,VWS V14.01,2013-12-08 22:10:00,
2013-12-08 16:15:00,21.8,18.3,30.14,ESE,106,1.0,2.0,86,0.00,,---,0.00,VWS V14.01,2013-12-08 22:15:00,
2013-12-08 16:20:00,21.8,18.3,30.14,ESE,106,0.0,0.0,86,0.00,,---,0.00,VWS V14.01,2013-12-08 22:20:00,
2013-12-08 16:25:00,21.9,18.4,30.14,ESE,106,0.0,1.0,86,0.00,,---,0.00,VWS V14.01,2013-12-08 22:25:00,
2013-12-08 16:30:00,21.9,18.4,30.14,ESE,106,0.0,0.0,86,0.00,,---,0.00,VWS V14.01,2013-12-08 22:30:00,
2013-12-08 16:35:00,22.0,18.5,30.14,ESE,106,0.0,1.0,86,0.00,,---,0.00,VWS V14.01,2013-12-08 22:35:00,
2013-12-08 16:40:00,21.9,18.1,30.15,ESE,106,0.0,1.0,85,0.00,,---,0.00,VWS V14.01,2013-12-08 22:40:00,
2013-12-08 16:45:00,21.9,18.4,30.15,ESE,106,0.0,1.0,86,0.00,,---,0.00,VWS V14.01,2013-12-08 22:45:00,
2013-12-08 16:50:00,21.9,18.4,30.15,ESE,106,0.0,0.0,86,0.00,,---,0.00,VWS V14.01,2013-12-08 22:50:00,
2013-12-08 16:55:00,21.9,18.4,30.15,ESE,106,0.0,0.0,86,0.00,,---,0.00,VWS V14.01,2013-12-08 22:55:00,
2013-12-08 17:00:00,21.8,18.3,30.16,ESE,106,2.0,2.0,86,0.00,,---,0.00,VWS V14.01,2013-12-08 23:00:00,
2013-12-08 17:05:00,21.8,18.3,30.16,ESE,106,0.0,2.0,86,0.00,,---,0.00,VWS V14.01,2013-12-08 23:05:00,
2013-12-08 17:10:00,21.7,18.2,30.17,ESE,106,0.0,1.0,86,0.00,,---,0.00,VWS V14.01,2013-12-08 23:10:00,
2013-12-08 17:15:00,21.7,18.2,30.18,ESE,106,0.0,2.0,86,0.00,,---,0.00,VWS V14.01,2013-12-08 23:15:00,
2013-12-08 17:20:00,21.6,18.1,30.18,ESE,106,0.0,1.0,86,0.00,,---,0.00,VWS V14.01,2013-12-08 23:20:00,
2013-12-08 17:25:00,21.6,18.1,30.18,ESE,114,0.0,2.0,86,0.00,,---,0.00,VWS V14.01,2013-12-08 23:25:00,
2013-12-08 17:30:00,21.5,18.0,30.18,SSW,200,0.0,0.0,86,0.00,,---,0.00,VWS V14.01,2013-12-08 23:30:00,
2013-12-08 17:35:00,21.5,18.0,30.19,SSW,200,1.0,1.0,86,0.00,,---,0.00,VWS V14.01,2013-12-08 23:35:00,
2013-12-08 17:40:00,21.4,18.1,30.19,SSW,200,1.0,1.0,87,0.00,,---,0.00,VWS V14.01,2013-12-08 23:40:00,
2013-12-08 17:45:00,21.4,18.1,30.19,SSW,200,1.0,2.0,87,0.00,,---,0.00,VWS V14.01,2013-12-08 23:45:00,
2013-12-08 17:50:00,21.3,18.0,30.19,SSW,200,0.0,1.0,87,0.00,,---,0.00,VWS V14.01,2013-12-08 23:50:00,
2013-12-08 17:55:00,21.3,18.0,30.19,SSW,200,0.0,1.0,87,0.00,,---,0.00,VWS V14.01,2013-12-08 23:55:00,
2013-12-08 18:00:00,21.2,17.9,30.19,SSW,200,0.0,1.0,87,0.00,,---,0.00,VWS V14.01,2013-12-09 00:00:00,
2013-12-08 18:05:00,21.2,18.2,30.19,SSW,200,0.0,2.0,88,0.00,,---,0.00,VWS V14.01,2013-12-09 00:05:00,
2013-12-08 18:10:00,21.2,18.2,30.19,SSW,200,0.0,0.0,88,0.00,,---,0.00,VWS V14.01,2013-12-09 00:10:00,
2013-12-08 18:15:00,21.2,18.2,30.19,SSW,200,0.0,0.0,88,0.00,,---,0.00,VWS V14.01,2013-12-09 00:15:00,
2013-12-08 18:20:00,21.2,18.2,30.19,SSW,200,0.0,0.0,88,0.00,,---,0.00,VWS V14.01,2013-12-09 00:20:00,
2013-12-08 18:25:00,21.2,18.2,30.19,SSW,200,0.0,1.0,88,0.00,,---,0.00,VWS V14.01,2013-12-09 00:25:00,
2013-12-08 18:30:00,21.1,18.1,30.19,SSW,200,0.0,1.0,88,0.00,,---,0.00,VWS V14.01,2013-12-09 00:30:00,
2013-12-08 18:35:00,21.1,18.1,30.19,SSW,200,1.0,1.0,88,0.00,,---,0.00,VWS V14.01,2013-12-09 00:35:00,
2013-12-08 18:40:00,21.1,18.1,30.19,SSW,200,0.0,1.0,88,0.00,,---,0.00,VWS V14.01,2013-12-09 00:40:00,
2013-12-08 18:45:00,21.1,18.1,30.20,SSW,200,1.0,1.0,88,0.00,,---,0.00,VWS V14.01,2013-12-09 00:45:00,
2013-12-08 18:50:00,21.1,18.1,30.20,SSW,200,0.0,0.0,88,0.00,,---,0.00,VWS V14.01,2013-12-09 00:50:00,
2013-12-08 18:55:00,21.1,18.1,30.21,SSW,200,0.0,1.0,88,0.00,,---,0.00,VWS V14.01,2013-12-09 00:55:00,
2013-12-08 19:00:00,21.0,18.0,30.21,SSW,200,0.0,2.0,88,0.00,,---,0.00,VWS V14.01,2013-12-09 01:00:00,
2013-12-08 19:05:00,21.0,18.0,30.22,SSW,200,0.0,2.0,88,0.00,,---,0.00,VWS V14.01,2013-12-09 01:05:00,
2013-12-08 19:10:00,21.1,18.1,30.22,SSW,200,0.0,0.0,88,0.00,,---,0.00,VWS V14.01,2013-12-09 01:10:00,
2013-12-08 19:15:00,21.1,18.1,30.22,SSW,200,0.0,1.0,88,0.00,,---,0.00,VWS V14.01,2013-12-09 01:15:00,
2013-12-08 19:20:00,21.0,18.0,30.21,WSW,251,0.0,1.0,88,0.00,,---,0.00,VWS V14.01,2013-12-09 01:20:00,
2013-12-08 19:25:00,21.0,18.0,30.21,WSW,251,0.0,1.0,88,0.00,,---,0.00,VWS V14.01,2013-12-09 01:25:00,
2013-12-08 19:30:00,20.9,17.9,30.21,WSW,258,1.0,3.0,88,0.00,,---,0.00,VWS V14.01,2013-12-09 01:30:00,
2013-12-08 19:35:00,20.9,17.9,30.21,West,266,0.0,3.0,88,0.00,,---,0.00,VWS V14.01,2013-12-09 01:35:00,
2013-12-08 19:40:00,20.9,17.9,30.21,West,278,0.0,0.0,88,0.00,,---,0.00,VWS V14.01,2013-12-09 01:40:00,
2013-12-08 19:45:00,20.8,17.8,30.22,West,278,0.0,1.0,88,0.00,,---,0.00,VWS V14.01,2013-12-09 01:45:00,
2013-12-08 19:50:00,20.8,17.8,30.22,West,278,0.0,2.0,88,0.00,,---,0.00,VWS V14.01,2013-12-09 01:50:00,
2013-12-08 19:55:00,20.8,17.8,30.23,WNW,284,0.0,2.0,88,0.00,,---,0.00,VWS V14.01,2013-12-09 01:55:00,
2013-12-08 20:00:00,20.8,17.8,30.22,West,271,0.0,1.0,88,0.00,,---,0.00,VWS V14.01,2013-12-09 02:00:00,
2013-12-08 20:05:00,20.7,17.7,30.23,West,271,0.0,2.0,88,0.00,,---,0.00,VWS V14.01,2013-12-09 02:05:00,
2013-12-08 20:10:00,20.7,17.7,30.23,West,271,1.0,2.0,88,0.00,,---,0.00,VWS V14.01,2013-12-09 02:10:00,
2013-12-08 20:15:00,20.6,17.6,30.23,West,272,1.0,2.0,88,0.00,,---,0.00,VWS V14.01,2013-12-09 02:15:00,
2013-12-08 20:20:00,20.5,17.5,30.23,West,281,2.0,4.0,88,0.00,,---,0.00,VWS V14.01,2013-12-09 02:20:00,
2013-12-08 20:25:00,20.4,17.4,30.23,NW,325,0.0,4.0,88,0.00,,---,0.00,VWS V14.01,2013-12-09 02:25:00,
2013-12-08 20:30:00,20.3,17.3,30.24,West,261,3.0,3.0,88,0.00,,---,0.00,VWS V14.01,2013-12-09 02:30:00,
2013-12-08 20:35:00,20.2,17.2,30.24,North,355,1.0,3.0,88,0.00,,---,0.00,VWS V14.01,2013-12-09 02:35:00,
2013-12-08 20:40:00,20.0,17.0,30.23,West,262,0.0,2.0,88,0.00,,---,0.00,VWS V14.01,2013-12-09 02:40:00,
2013-12-08 20:45:00,20.0,17.0,30.23,West,263,1.0,2.0,88,0.00,,---,0.00,VWS V14.01,2013-12-09 02:45:00,
2013-12-08 20:50:00,19.9,16.9,30.23,West,263,0.0,1.0,88,0.00,,---,0.00,VWS V14.01,2013-12-09 02:50:00,
2013-12-08 20:55:00,19.9,16.9,30.23,WSW,244,1.0,4.0,88,0.00,,---,0.00,VWS V14.01,2013-12-09 02:55:00,
2013-12-08 21:00:00,19.8,16.6,30.23,WNW,295,1.0,1.0,87,0.00,,---,0.00,VWS V14.01,2013-12-09 03:00:00,
2013-12-08 21:05:00,19.7,16.5,30.23,WNW,288,0.0,4.0,87,0.00,,---,0.00,VWS V14.01,2013-12-09 03:05:00,
2013-12-08 21:10:00,19.6,16.4,30.23,WNW,287,1.0,1.0,87,0.00,,---,0.00,VWS V14.01,2013-12-09 03:10:00,
2013-12-08 21:15:00,19.5,16.3,30.24,WSW,240,1.0,4.0,87,0.00,,---,0.00,VWS V14.01,2013-12-09 03:15:00,
2013-12-08 21:20:00,19.4,16.2,30.24,West,266,1.0,1.0,87,0.00,,---,0.00,VWS V14.01,2013-12-09 03:20:00,
2013-12-08 21:25:00,19.3,16.1,30.24,West,265,0.0,3.0,87,0.00,,---,0.00,VWS V14.01,2013-12-09 03:25:00,
2013-12-08 21:30:00,19.1,15.6,30.25,West,265,0.0,0.0,86,0.00,,---,0.00,VWS V14.01,2013-12-09 03:30:00,
2013-12-08 21:35:00,19.0,15.5,30.24,West,264,0.0,4.0,86,0.00,,---,0.00,VWS V14.01,2013-12-09 03:35:00,
2013-12-08 21:40:00,18.8,15.3,30.24,West,264,0.0,1.0,86,0.00,,---,0.00,VWS V14.01,2013-12-09 03:40:00,
2013-12-08 21:45:00,18.6,15.1,30.24,West,259,0.0,3.0,86,0.00,,---,0.00,VWS V14.01,2013-12-09 03:45:00,
2013-12-08 21:50:00,18.3,14.8,30.24,West,267,3.0,3.0,86,0.00,,---,0.00,VWS V14.01,2013-12-09 03:50:00,
2013-12-08 21:55:00,18.2,14.7,30.24,West,267,1.0,3.0,86,0.00,,---,0.00,VWS V14.01,2013-12-09 03:55:00,
2013-12-08 22:00:00,18.0,14.5,30.25,West,267,1.0,1.0,86,0.00,,---,0.00,VWS V14.01,2013-12-09 04:00:00,
2013-12-08 22:05:00,17.8,14.3,30.25,West,267,0.0,2.0,86,0.00,,---,0.00,VWS V14.01,2013-12-09 04:05:00,
2013-12-08 22:10:00,17.6,13.9,30.26,West,265,0.0,1.0,85,0.00,,---,0.00,VWS V14.01,2013-12-09 04:10:00,
2013-12-08 22:15:00,17.4,13.7,30.26,West,265,0.0,1.0,85,0.00,,---,0.00,VWS V14.01,2013-12-09 04:15:00,
2013-12-08 22:20:00,17.2,13.5,30.26,West,265,1.0,1.0,85,0.00,,---,0.00,VWS V14.01,2013-12-09 04:20:00,
2013-12-08 22:25:00,17.0,13.3,30.26,West,265,0.0,1.0,85,0.00,,---,0.00,VWS V14.01,2013-12-09 04:25:00,
2013-12-08 22:30:00,16.8,13.1,30.27,West,279,0.0,1.0,85,0.00,,---,0.00,VWS V14.01,2013-12-09 04:30:00,
2013-12-08 22:35:00,16.7,13.0,30.27,West,279,0.0,2.0,85,0.00,,---,0.00,VWS V14.01,2013-12-09 04:35:00,
2013-12-08 22:40:00,16.5,12.8,30.27,West,279,0.0,1.0,85,0.00,,---,0.00,VWS V14.01,2013-12-09 04:40:00,
2013-12-08 22:45:00,16.4,12.7,30.27,West,279,0.0,1.0,85,0.00,,---,0.00,VWS V14.01,2013-12-09 04:45:00,
2013-12-08 22:50:00,16.2,12.5,30.28,West,279,0.0,0.0,85,0.00,,---,0.00,VWS V14.01,2013-12-09 04:50:00,
2013-12-08 22:55:00,16.1,12.4,30.27,West,279,0.0,2.0,85,0.00,,---,0.00,VWS V14.01,2013-12-09 04:55:00,
2013-12-08 23:00:00,16.0,12.3,30.28,West,279,0.0,0.0,85,0.00,,---,0.00,VWS V14.01,2013-12-09 05:00:00,
2013-12-08 23:01:00,15.9,12.2,30.28,West,279,0.0,0.0,85,0.00,,---,0.00,VWS V14.01,2013-12-09 05:01:00,
2013-12-08 23:06:00,15.8,12.1,30.29,West,279,0.0,0.0,85,0.00,,---,0.00,VWS V14.01,2013-12-09 05:06:00,
2013-12-08 23:10:00,17.6,13.9,30.26,West,265,0.0,3.0,85,0.00,,---,0.00,VWS V14.01,2013-12-09 05:10:00,
2013-12-08 23:11:00,15.7,12.0,30.29,West,279,0.0,0.0,85,0.00,,---,0.00,VWS V14.01,2013-12-09 05:11:00,
2013-12-08 23:16:00,15.5,11.8,30.30,West,279,0.0,0.0,85,0.00,,---,0.00,VWS V14.01,2013-12-09 05:16:00,
2013-12-08 23:20:00,17.2,13.5,30.26,West,265,0.0,3.0,85,0.00,,---,0.00,VWS V14.01,2013-12-09 05:20:00,
2013-12-08 23:21:00,15.4,11.7,30.30,West,279,0.0,0.0,85,0.00,,---,0.00,VWS V14.01,2013-12-09 05:21:00,
2013-12-08 23:26:00,15.2,11.5,30.30,West,279,1.0,2.0,85,0.00,,---,0.00,VWS V14.01,2013-12-09 05:26:00,
2013-12-08 23:30:00,16.9,13.2,30.27,West,279,0.0,2.0,85,0.00,,---,0.00,VWS V14.01,2013-12-09 05:30:00,
2013-12-08 23:31:00,15.1,11.4,30.30,West,279,0.0,1.0,85,0.00,,---,0.00,VWS V14.01,2013-12-09 05:31:00,
2013-12-08 23:36:00,15.0,11.6,30.31,West,279,0.0,1.0,86,0.00,,---,0.00,VWS V14.01,2013-12-09 05:36:00,
2013-12-08 23:40:00,16.6,12.9,30.27,West,279,0.0,2.0,85,0.00,,---,0.00,VWS V14.01,2013-12-09 05:40:00,
2013-12-08 23:41:00,14.9,11.5,30.31,West,279,0.0,0.0,86,0.00,,---,0.00,VWS V14.01,2013-12-09 05:41:00,
2013-12-08 23:46:00,14.8,11.4,30.32,West,279,2.0,2.0,86,0.00,,---,0.00,VWS V14.01,2013-12-09 05:46:00,
2013-12-08 23:50:00,16.3,12.6,30.27,West,279,0.0,1.0,85,0.00,,---,0.00,VWS V14.01,2013-12-09 05:50:00,
2013-12-08 23:51:00,14.7,11.3,30.32,West,278,0.0,2.0,86,0.00,,---,0.00,VWS V14.01,2013-12-09 05:51:00,
2013-12-08 23:56:00,14.6,11.2,30.31,West,278,0.0,2.0,86,0.00,,---,0.00,VWS V14.01,2013-12-09 05:56:00,